Location: Newark
(35.6799°N, 139.7636°E)
Time: 13:58:27
(UTC+00:00)

Transit 2A - Pass Details

Date: 09 December 2019
Orbit: 601 x 958 km, 66.7° (Epoch: 24 January)

Event Time Altitude Azimuth Distance (km) Brightness Sun altitude
Rises 22:24:11 0° 236° (WSW) 3,123 8.9 7.0°
Reaches altitude 10° 22:27:00 10° 250° (WSW) 2,144 8.0 7.4°
Maximum altitude 22:30:54 24° 304° (NW) 1,362 6.8 8.1°
Drops below altitude 10° 22:34:35 10° 359° (N) 2,015 7.9 8.7°
Sets 22:37:10 0° 14° (NNE) 2,892 8.8 9.1°
